EGACEGPH

Guest
Details From EGAC - Belfast City
To EGPH - Edinburgh
Flight Number -
Tags generated
Created
Modified
Stats Distance 117 nm / 217 km
Max Altitude 0 ft / 0 m
Waypoints 3
Social Downloads 1
Likes 0
Share VATSIM

Download

Looking for another format? Having issues loading an existing format? Contact us
Advertisement - Login to hide

Notes

None

Route

EGAC GIRVA EGPH

ID Type Via Altitude Latitude Longitude Leg Dist Tot Dist Heading (true) Name
O EGAC APT - 0 ft / 0 m 54.61811˚ -5.87258˚ - 0 nm - Belfast City
GIRVA FIX - 0 ft / 0 m 55.18556˚ -4.89639˚ 47 nm 47 nm 44° / 45° -
O EGPH APT - 0 ft / 0 m 55.94869˚ -3.35972˚ 69 nm 117 nm 48° / 49° Edinburgh

Altitude Profile

Advertisement - Login to hide

EGAC

Details ICAO EGAC (BHD)
Name Belfast City
Region United Kingdom
Timezone Europe/London (UTC+0.0)
Stats Elevation 15 ft / 5 m (AMSL)
Location 54.618108° -5.872575°
Runways 1
Magnetic Variation 3.091° W

METAR

EGAC 141020Z 22014G24KT 9999 -RA FEW010 SCT013 BKN027 04/03 Q0982

Decode

TAF

Not found

Departure Runways

ID Width Length Bearing (true) Bearing (mag) Surface Threshold Offset Overrun Length
04 148 ft / 45 m 6,009 ft / 1,832 m 34.93° 38.02° Asphalt 302 ft / 92 m 0 ft / 0 m
22 148 ft / 45 m 6,009 ft / 1,832 m 214.94° 218.03° Asphalt 0 ft / 0 m 0 ft / 0 m

EGPH

Details ICAO EGPH (EDI)
Name Edinburgh
Region United Kingdom
Timezone Europe/London (UTC+0.0)
Stats Elevation 135 ft / 41 m (AMSL)
Location 55.948685° -3.359718°
Runways 2
Magnetic Variation 2.299° W

METAR

EGPH 141020Z 24006KT 9999 7000W -RA FEW015 BKN030 02/01 Q0979

Decode

TAF

TAF EGPH 140456Z 1406/1506 24009KT 9999 SCT025 TEMPO 1406/1420 6000 SHRA -SHRASN BKN008 PROB30 TEMPO 1412/1418 3000 SHRASN PROB40 TEMPO 1503/1506 3000 SHRASN BKN012

Decode

Destination Runways

ID Width Length Bearing (true) Bearing (mag) Surface Threshold Offset Overrun Length
06 144 ft / 44 m 8,366 ft / 2,550 m 58.80° 61.10° Asphalt 705 ft / 215 m 200 ft / 61 m
12 151 ft / 46 m 5,878 ft / 1,792 m 118.67° 120.97° Asphalt 0 ft / 0 m 0 ft / 0 m
24 144 ft / 44 m 8,366 ft / 2,550 m 238.83° 241.13° Asphalt 679 ft / 207 m 207 ft / 63 m
30 151 ft / 46 m 5,878 ft / 1,792 m 298.69° 300.99° Asphalt 194 ft / 59 m 253 ft / 77 m

Approach Navaids

Runway Type Ident Frequency Range Bearing (true) Bearing (mag) Slope Elevation
06 Localiser IVG 108.90 MHz 18 nm / 33 km 58.83° 61.13° - 110 ft / 34 m (AMSL)
06 Glidescope IVG 108.90 MHz 10 nm / 19 km 58.81° 61.11° 3.00° 135 ft / 41 m (AMSL)
06 DME IVG 108.90 MHz 18 nm / 33 km - - - 123 ft / 37 m (AMSL)
24 Localiser ITH 108.90 MHz 18 nm / 33 km 238.79° 241.09° - 110 ft / 34 m (AMSL)
24 Glidescope ITH 108.90 MHz 10 nm / 19 km 238.81° 241.11° 3.00° 135 ft / 41 m (AMSL)
24 DME ITH 108.90 MHz 18 nm / 33 km - - - 123 ft / 37 m (AMSL)

Popular Alternatives